カタログに戻る

STARLINK-32154

運用中通信VLEO
NORAD 60276·PAYLOAD·🇺🇸 United States

打ち上げ Jul 27, 2024 から Cape Canaveral Space Force Station

Loading…

次のパス (今後24時間)

TLE

最新Source: CelesTrak SupGP

元期: Sep 15, 2026, 01:57 UTC

1 60276C 24131X   26258.08173611 -.00019824  00000+0 -58560-3 0  2582
2 60276  53.1574 250.9079 0001478  84.5327 178.0823 15.34406206    10

AllMySatでSTARLINK-32154をリアルタイム追跡

Download on the App Store